OK,79,46,799,79,2014-10-01T01:40:00,0,28072569,195041
OK,79,46,799,79,2014-10-01T01:45:00,0,28073016,195041
OK,79,46,799,79,2014-10-01T01:50:00,0,28073465,195041
OK,79,46,799,79,2014-10-01T01:55:00,0,28073784,195041
OK,79,46,799,79,2014-10-01T02:00:00,0,28074231,195041
OK,79,46,799,79,2014-10-01T02:05:00,0,28074674,195041
OK,79,46,799,79,2014-10-01T02:10:00,0,28075120,195041
OK,70,52,799,70,2014-10-01T02:20:00,1,28075569,195041
OK,70,52,799,70,2014-10-01T02:25:00,0,28076401,195041
OK,70,52,799,70,2014-10-01T02:30:00,0,28076850,195041
OK,70,52,799,70,2014-10-01T02:40:00,0,28077299,195041
OK,70,52,799,70,2014-10-01T02:50:00,0,28078151,195041
OK,70,52,799,70,2014-10-01T02:55:00,0,28078600,195041
OK,70,52,799,70,2014-10-01T03:00:00,0,28079045,195041
OK,70,52,799,70,2014-10-01T03:10:00,0,28079936,195041
OK,87,42,799,87,2014-10-01T03:15:00,1,28080719,195041
OK,63,58,799,63,2014-10-01T03:25:00,2,28081168,195041
OK,90,40,799,90,2014-10-01T03:30:00,1,28081616,195041
OK,90,40,799,90,2014-10-01T03:35:00,1,28082064,195041
OK,90,40,799,90,2014-10-01T03:40:00,0,28082512,195041
OK,90,40,799,90,2014-10-01T03:50:00,0,28083378,195041
OK,90,40,799,90,2014-10-01T03:55:00,0,28083827,195041
OK,90,40,799,90,2014-10-01T04:00:00,0,28084276,195041
OK,90,40,799,90,2014-10-01T04:05:00,0,28084714,195041
OK,90,40,799,90,2014-10-01T04:10:00,0,28085142,195041
OK,75,48,799,75,2014-10-01T04:15:00,1,28085591,195041
OK,75,48,799,75,2014-10-01T04:20:00,0,28086036,195041
OK,75,48,799,75,2014-10-01T04:25:00,0,28086485,195041
OK,75,48,799,75,2014-10-01T04:30:00,0,28086927,195041
OK,75,48,799,75,2014-10-01T04:35:00,0,28087376,195041
OK,65,56,799,65,2014-10-01T04:40:00,1,28087821,195041
OK,97,37,799,97,2014-10-01T04:50:00,4,28088694,195041
OK,77,47,799,77,2014-10-01T05:00:00,5,28089573,195041
OK,77,47,799,77,2014-10-01T05:05:00,3,28090022,195041
OK,71,51,799,71,2014-10-01T05:15:00,3,28090815,195041
OK,73,50,799,73,2014-10-01T05:20:00,6,28091264,195041
OK,78,46,799,78,2014-10-01T05:30:00,2,28092130,195041
OK,93,39,799,93,2014-10-01T05:35:00,1,28092578,195041
OK,94,38,799,94,2014-10-01T05:40:00,2,28093453,195041
OK,81,45,799,81,2014-10-01T05:50:00,4,28093895,195041
OK,76,48,799,76,2014-10-01T05:55:00,5,28094751,195041
OK,87,42,799,87,2014-10-01T06:00:00,1,28095199,195041
OK,110,33,799,110,2014-10-01T06:10:00,3,28095647,195041
OK,78,46,799,78,2014-10-01T06:20:00,7,28096509,195041
OK,81,45,799,81,2014-10-01T06:25:00,8,28097392,195041
OK,69,52,799,69,2014-10-01T06:35:00,6,28097841,195041
OK,71,51,799,71,2014-10-01T06:40:00,5,28098290,195041
OK,70,52,799,70,2014-10-01T06:45:00,2,28098727,195041
OK,72,50,799,72,2014-10-01T06:50:00,2,28099171,195041
OK,71,51,799,71,2014-10-01T07:00:00,5,28099962,195041
OK,70,52,799,70,2014-10-01T07:05:00,6,28100718,195041
OK,67,54,799,67,2014-10-01T07:10:00,1,28101097,195041
OK,75,48,799,75,2014-10-01T07:20:00,2,28101538,195041
OK,73,50,799,73,2014-10-01T07:30:00,2,28102423,195041
OK,67,54,799,67,2014-10-01T07:35:00,4,28102872,195041
OK,67,54,799,67,2014-10-01T07:40:00,3,28103299,195041
OK,63,58,799,63,2014-10-01T07:45:00,1,28103746,195041
OK,72,50,799,72,2014-10-01T07:50:00,3,28104191,195041
OK,72,50,799,72,2014-10-01T07:55:00,4,28104635,195041
OK,74,49,799,74,2014-10-01T08:00:00,3,28105074,195041
OK,63,58,799,63,2014-10-01T08:10:00,3,28105962,195041
OK,64,57,799,64,2014-10-01T08:15:00,2,28106813,195041
OK,69,52,799,69,2014-10-01T08:20:00,6,28107237,195041
OK,69,52,799,69,2014-10-01T08:25:00,6,28107686,195041
OK,72,50,799,72,2014-10-01T08:30:00,3,28108127,195041
OK,72,50,799,72,2014-10-01T08:40:00,3,28108574,195041
OK,67,54,799,67,2014-10-01T08:45:00,5,28109451,195041
OK,61,59,799,61,2014-10-01T08:50:00,4,28109803,195041
OK,69,52,799,69,2014-10-01T08:55:00,5,28110243,195041
OK,75,48,799,75,2014-10-01T09:00:00,2,28110673,195041
OK,73,50,799,73,2014-10-01T09:05:00,6,28111115,195041
OK,73,50,799,73,2014-10-01T09:10:00,7,28111550,195041
OK,78,46,799,78,2014-10-01T09:15:00,3,28111993,195041
OK,77,47,799,77,2014-10-01T09:20:00,6,28112341,195041
OK,75,48,799,75,2014-10-01T09:25:00,6,28112783,195041
OK,76,48,799,76,2014-10-01T09:30:00,3,28113215,195041
OK,83,44,799,83,2014-10-01T09:35:00,1,28113656,195041
OK,83,44,799,83,2014-10-01T09:40:00,0,28114091,195041
OK,73,50,799,73,2014-10-01T09:45:00,3,28114537,195041
OK,77,47,799,77,2014-10-01T09:50:00,1,28114894,195041
OK,79,46,799,79,2014-10-01T10:00:00,2,28115340,195041
OK,68,53,799,68,2014-10-01T10:10:00,4,28116201,195041
OK,68,53,799,68,2014-10-01T10:15:00,3,28117058,195041
OK,70,52,799,70,2014-10-01T10:20:00,8,28117490,195041
OK,72,50,799,72,2014-10-01T10:25:00,4,28117932,195041
OK,72,50,799,72,2014-10-01T10:30:00,4,28118378,195041
OK,74,49,799,74,2014-10-01T10:35:00,7,28118825,195041
OK,74,49,799,74,2014-10-01T10:40:00,5,28119270,195041
OK,64,57,799,64,2014-10-01T10:45:00,4,28119716,195041
OK,64,57,799,64,2014-10-01T10:50:00,2,28120164,195041
OK,74,49,799,74,2014-10-01T10:55:00,3,28120613,195041
OK,73,50,799,73,2014-10-01T11:00:00,7,28121004,195041
OK,72,50,799,72,2014-10-01T11:05:00,4,28121445,195041
OK,73,50,799,73,2014-10-01T11:10:00,2,28121884,195041
OK,77,47,799,77,2014-10-01T11:15:00,6,28122332,195041
OK,75,48,799,75,2014-10-01T11:20:00,9,28122774,195041
OK,63,58,799,63,2014-10-01T11:25:00,4,28123222,195041
OK,70,52,799,70,2014-10-01T11:30:00,4,28123657,195041
OK,68,53,799,68,2014-10-01T11:40:00,5,28124103,195041
OK,72,50,799,72,2014-10-01T11:50:00,4,28124954,195041
OK,83,44,799,83,2014-10-01T11:55:00,2,28125832,195041
OK,77,47,799,77,2014-10-01T12:00:00,2,28126187,195041
OK,76,48,799,76,2014-10-01T12:05:00,3,28126633,195041
OK,62,58,799,62,2014-10-01T12:10:00,3,28127082,195041
OK,69,52,799,69,2014-10-01T12:15:00,8,28127531,195041
OK,69,52,799,69,2014-10-01T12:20:00,5,28127962,195041
OK,68,53,799,68,2014-10-01T12:25:00,2,28128408,195041
OK,72,50,799,72,2014-10-01T12:30:00,3,28128846,195041
OK,74,49,799,74,2014-10-01T12:35:00,5,28129292,195041
OK,72,50,799,72,2014-10-01T12:40:00,8,28129727,195041
OK,70,52,799,70,2014-10-01T12:45:00,4,28130175,195041
OK,61,59,799,61,2014-10-01T12:50:00,1,28130605,195041
OK,53,68,799,53,2014-10-01T12:55:00,0,28131052,195041
OK,67,54,799,67,2014-10-01T13:00:00,3,28131491,195041
OK,79,46,799,79,2014-10-01T13:05:00,5,28131938,195041
OK,79,46,799,79,2014-10-01T13:10:00,5,28132377,195041
OK,69,52,799,69,2014-10-01T13:15:00,2,28132823,195041
OK,70,52,799,70,2014-10-01T13:20:00,7,28133261,195041
OK,72,50,799,72,2014-10-01T13:25:00,6,28133710,195041
OK,81,45,799,81,2014-10-01T13:30:00,3,28134149,195041
OK,75,48,799,75,2014-10-01T13:35:00,6,28134598,195041
OK,75,48,799,75,2014-10-01T13:40:00,5,28135018,195041
OK,77,47,799,77,2014-10-01T13:45:00,9,28135466,195041
OK,76,48,799,76,2014-10-01T13:50:00,7,28135903,195041
OK,80,45,799,80,2014-10-01T13:55:00,5,28136352,195041
OK,66,55,799,66,2014-10-01T14:00:00,3,28136792,195041
OK,65,56,799,65,2014-10-01T14:05:00,1,28137241,195041
OK,78,46,799,78,2014-10-01T14:10:00,4,28137676,195041
OK,72,50,799,72,2014-10-01T14:15:00,3,28138124,195041
OK,74,49,799,74,2014-10-01T14:20:00,7,28138553,195041
OK,81,45,799,81,2014-10-01T14:25:00,10,28139001,195041
OK,78,46,799,78,2014-10-01T14:30:00,6,28139413,195041
OK,76,48,799,76,2014-10-01T14:35:00,7,28139861,195041
OK,74,49,799,74,2014-10-01T14:40:00,7,28140304,195041
OK,73,50,799,73,2014-10-01T14:45:00,3,28140752,195041
OK,76,48,799,76,2014-10-01T14:50:00,3,28141180,195041
OK,69,52,799,69,2014-10-01T14:55:00,9,28141627,195041
OK,66,55,799,66,2014-10-01T15:00:00,12,28142057,195041
OK,67,54,799,67,2014-10-01T15:05:00,5,28142504,195041
OK,64,57,799,64,2014-10-01T15:10:00,2,28142937,195041
OK,77,47,799,77,2014-10-01T15:15:00,7,28143380,195041
OK,76,48,799,76,2014-10-01T15:20:00,10,28143828,195041
OK,68,53,799,68,2014-10-01T15:25:00,6,28144277,195041
OK,68,53,799,68,2014-10-01T15:30:00,5,28144706,195041
OK,71,51,799,71,2014-10-01T15:35:00,7,28145112,195041
OK,71,51,799,71,2014-10-01T15:40:00,3,28145561,195041
OK,69,52,799,69,2014-10-01T15:45:00,2,28146010,195041
OK,69,52,799,69,2014-10-01T15:55:00,0,28146459,195041
OK,69,52,799,69,2014-10-01T16:00:00,0,28147312,195041
OK,69,52,799,69,2014-10-01T16:05:00,0,28147760,195041
OK,55,66,799,55,2014-10-01T16:10:00,2,28148165,195041
OK,63,58,799,63,2014-10-01T16:15:00,4,28148610,195041
OK,73,50,799,73,2014-10-01T16:20:00,1,28149051,195041
OK,73,50,799,73,2014-10-01T16:25:00,0,28149498,195041
OK,73,50,799,73,2014-10-01T16:30:00,0,28149928,195041
OK,63,58,799,63,2014-10-01T16:35:00,2,28150373,195041
OK,65,56,799,65,2014-10-01T16:40:00,1,28150796,195041
OK,62,58,799,62,2014-10-01T16:45:00,1,28151240,195041
OK,61,59,799,61,2014-10-01T16:55:00,2,28151689,195041
OK,63,58,799,63,2014-10-01T17:00:00,1,28152138,195041
OK,63,58,799,63,2014-10-01T17:05:00,1,28152584,195041
OK,67,54,799,67,2014-10-01T17:10:00,1,28153031,195041
OK,69,52,799,69,2014-10-01T17:20:00,3,28153480,195041
OK,57,64,799,57,2014-10-01T17:30:00,0,28154339,195041
OK,57,64,799,57,2014-10-01T17:40:00,0,28155229,195041
OK,69,52,799,69,2014-10-01T17:45:00,5,28156096,195041
OK,69,52,799,69,2014-10-01T17:50:00,4,28156545,195041
OK,67,54,799,67,2014-10-01T17:55:00,2,28156987,195041
OK,69,52,799,69,2014-10-01T18:00:00,2,28157416,195041
OK,69,52,799,69,2014-10-01T18:05:00,2,28157861,195041
OK,77,47,799,77,2014-10-01T18:10:00,0,28158306,195041
OK,77,47,799,77,2014-10-01T18:15:00,0,28158752,195041
OK,69,52,799,69,2014-10-01T18:20:00,3,28159197,195041
OK,69,52,799,69,2014-10-01T18:25:00,3,28159533,195041
OK,69,52,799,69,2014-10-01T18:30:00,0,28159981,195041
OK,69,52,799,69,2014-10-01T18:35:00,0,28160430,195041
OK,69,52,799,69,2014-10-01T18:40:00,0,28160872,195041
OK,69,52,799,69,2014-10-01T18:45:00,0,28161317,195041
OK,69,52,799,69,2014-10-01T18:50:00,0,28161736,195041
OK,69,52,799,69,2014-10-01T19:00:00,0,28162183,195041
OK,69,52,799,69,2014-10-01T19:05:00,0,28163017,195041
OK,70,52,799,70,2014-10-01T19:10:00,1,28163464,195041
OK,64,57,799,64,2014-10-01T19:15:00,2,28163913,195041
OK,67,54,799,67,2014-10-01T19:20:00,1,28164346,195041
OK,67,54,799,67,2014-10-01T19:25:00,0,28164793,195041
OK,67,54,799,67,2014-10-01T19:30:00,0,28165223,195041
OK,67,54,799,67,2014-10-01T19:35:00,0,28165666,195041
OK,56,65,799,56,2014-10-01T19:40:00,1,28166107,195041
OK,62,58,799,62,2014-10-01T19:45:00,1,28166469,195041
OK,68,53,799,68,2014-10-01T19:50:00,2,28166918,195041
OK,74,49,799,74,2014-10-01T19:55:00,0,28167347,195041
OK,74,49,799,74,2014-10-01T20:00:00,0,28167781,195041
OK,74,49,799,74,2014-10-01T20:05:00,0,28168229,195041
OK,74,49,799,74,2014-10-01T20:10:00,0,28168674,195041
OK,74,49,799,74,2014-10-01T20:15:00,0,28169123,195041
OK,74,49,799,74,2014-10-01T20:20:00,0,28169571,195041
OK,74,49,799,74,2014-10-01T20:25:00,0,28169997,195041
OK,74,49,799,74,2014-10-01T20:30:00,0,28170442,195041
OK,74,49,799,74,2014-10-01T20:35:00,0,28170890,195041
OK,74,49,799,74,2014-10-01T20:40:00,0,28171327,195041
OK,74,49,799,74,2014-10-01T20:45:00,1,28171773,195041
OK,73,50,799,73,2014-10-01T20:50:00,3,28172221,195041
OK,73,50,799,73,2014-10-01T20:55:00,1,28172667,195041
OK,73,50,799,73,2014-10-01T21:00:00,0,28173113,195041
OK,73,50,799,73,2014-10-01T21:05:00,0,28173562,195041
OK,73,50,799,73,2014-10-01T21:10:00,0,28174003,195041
OK,73,50,799,73,2014-10-01T21:15:00,0,28174452,195041
OK,73,50,799,73,2014-10-01T21:20:00,0,28174878,195041
OK,73,50,799,73,2014-10-01T21:25:00,0,28175274,195041
OK,73,50,799,73,2014-10-01T21:30:00,0,28175723,195041
OK,73,50,799,73,2014-10-01T21:35:00,0,28176172,195041
OK,73,50,799,73,2014-10-01T21:45:00,0,28176621,195041
OK,73,50,799,73,2014-10-01T21:50:00,0,28177417,195041
OK,73,50,799,73,2014-10-01T21:55:00,0,28177863,195041
OK,73,50,799,73,2014-10-01T22:00:00,0,28178312,195041
OK,73,50,799,73,2014-10-01T22:05:00,0,28178759,195041
OK,73,50,799,73,2014-10-01T22:10:00,0,28179195,195041
OK,73,50,799,73,2014-10-01T22:15:00,0,28179636,195041
OK,62,58,799,62,2014-10-01T22:20:00,1,28180083,195041
OK,62,58,799,62,2014-10-01T22:25:00,0,28180482,195041
OK,62,58,799,62,2014-10-01T22:30:00,0,28180930,195041
OK,62,58,799,62,2014-10-01T22:35:00,0,28181354,195041
OK,62,58,799,62,2014-10-01T22:40:00,0,28181802,195041
OK,62,58,799,62,2014-10-01T22:45:00,0,28182249,195041
OK,62,58,799,62,2014-10-01T22:50:00,0,28182698,195041
OK,62,58,799,62,2014-10-01T22:55:00,0,28183115,195041
OK,62,58,799,62,2014-10-01T23:00:00,0,28183548,195041
OK,62,58,799,62,2014-10-01T23:05:00,0,28183993,195041
OK,62,58,799,62,2014-10-01T23:10:00,0,28184442,195041
OK,62,58,799,62,2014-10-01T23:15:00,0,28184877,195041
OK,62,58,799,62,2014-10-01T23:20:00,0,28185325,195041
OK,62,58,799,62,2014-10-01T23:25:00,0,28185756,195041
OK,62,58,799,62,2014-10-01T23:30:00,0,28186148,195041
OK,62,58,799,62,2014-10-01T23:40:00,0,28186995,195041
OK,62,58,799,62,2014-10-01T23:45:00,0,28187437,195041
OK,62,58,799,62,2014-10-01T23:50:00,0,28187886,195041
OK,62,58,799,62,2014-10-01T23:55:00,0,28188327,195041
OK,62,58,799,62,2014-10-02T00:00:00,0,28188763,195041
OK,62,58,799,62,2014-10-02T00:05:00,0,28189212,195041
OK,62,58,799,62,2014-10-02T00:10:00,0,28189638,195041
OK,62,58,799,62,2014-10-02T00:15:00,0,28190083,195041
OK,62,58,799,62,2014-10-02T00:20:00,0,28190439,195041
OK,62,58,799,62,2014-10-02T00:25:00,0,28190885,195041
OK,62,58,799,62,2014-10-02T00:30:00,0,28191334,195041
OK,62,58,799,62,2014-10-02T00:35:00,0,28191646,195041
OK,62,58,799,62,2014-10-02T00:40:00,0,28192089,195041
OK,62,58,799,62,2014-10-02T00:45:00,0,28192523,195041
OK,62,58,799,62,2014-10-02T00:50:00,0,28192966,195041
OK,62,58,799,62,2014-10-02T00:55:00,0,28193333,195041
OK,62,58,799,62,2014-10-02T01:00:00,0,28193782,195041
OK,62,58,799,62,2014-10-02T01:05:00,0,28194231,195041
OK,62,58,799,62,2014-10-02T01:15:00,0,28194680,195041
OK,62,58,799,62,2014-10-02T01:20:00,0,28195365,195041
OK,62,58,799,62,2014-10-02T01:30:00,0,28195814,195041
OK,62,58,799,62,2014-10-02T01:35:00,0,28196547,195041
OK,62,58,799,62,2014-10-02T01:40:00,0,28196972,195041
OK,62,58,799,62,2014-10-02T01:45:00,0,28197419,195041
OK,62,58,799,62,2014-10-02T01:50:00,0,28197867,195041
OK,62,58,799,62,2014-10-02T01:55:00,0,28198315,195041
OK,62,58,799,62,2014-10-02T02:05:00,0,28198764,195041
OK,62,58,799,62,2014-10-02T02:10:00,0,28199578,195041
OK,61,59,799,61,2014-10-02T02:15:00,0,28200020,195041
OK,61,59,799,61,2014-10-02T02:20:00,0,28200463,195041
OK,61,59,799,61,2014-10-02T02:25:00,0,28200912,195041
OK,61,59,799,61,2014-10-02T02:30:00,0,28201343,195041
OK,61,59,799,61,2014-10-02T02:45:00,0,28202241,195041
OK,61,59,799,61,2014-10-02T02:50:00,0,28202683,195041
OK,61,59,799,61,2014-10-02T02:55:00,0,28203131,195041
OK,61,59,799,61,2014-10-02T03:00:00,0,28203566,195041
OK,61,59,799,61,2014-10-02T03:10:00,0,28204015,195041
OK,61,59,799,61,2014-10-02T03:25:00,0,28204464,195041
OK,61,59,799,61,2014-10-02T03:30:00,0,28204913,195041
OK,61,59,799,61,2014-10-02T03:35:00,0,28205343,195041
OK,61,59,799,61,2014-10-02T03:40:00,0,28205788,195041
OK,77,47,799,77,2014-10-02T03:45:00,0,28206171,195041
OK,77,47,799,77,2014-10-02T03:55:00,0,28207069,195041
OK,80,45,799,80,2014-10-02T04:00:00,7,28207491,195041
OK,76,48,799,76,2014-10-02T04:05:00,0,28207937,195041
OK,76,48,799,76,2014-10-02T04:10:00,0,28208369,195041
OK,76,48,799,76,2014-10-02T04:15:00,0,28208813,195041
OK,76,48,799,76,2014-10-02T04:20:00,0,28209252,195041
OK,70,52,799,70,2014-10-02T04:30:00,1,28209700,195041
OK,70,52,799,70,2014-10-02T04:35:00,0,28210572,195041
OK,84,43,799,84,2014-10-02T04:40:00,1,28211003,195041
OK,84,43,799,84,2014-10-02T04:45:00,0,28211441,195041
OK,84,43,799,84,2014-10-02T04:50:00,0,28211819,195041
OK,75,48,799,75,2014-10-02T05:00:00,0,28212268,195041
OK,73,50,799,73,2014-10-02T05:05:00,0,28213146,195041
OK,73,50,799,73,2014-10-02T05:10:00,0,28213592,195041
OK,77,47,799,77,2014-10-02T05:20:00,0,28214033,195041
OK,100,36,799,100,2014-10-02T05:30:00,2,28214895,195041
OK,88,41,799,88,2014-10-02T05:40:00,2,28215760,195041
OK,81,45,799,81,2014-10-02T05:45:00,0,28216539,195041
OK,81,45,799,81,2014-10-02T05:50:00,0,28216988,195041
OK,77,47,799,77,2014-10-02T05:55:00,2,28217435,195041
OK,85,42,799,85,2014-10-02T06:00:00,2,28217877,195041
OK,74,49,799,74,2014-10-02T06:10:00,0,28218323,195041
OK,83,44,799,83,2014-10-02T06:15:00,6,28219192,195041
OK,75,48,799,75,2014-10-02T06:20:00,5,28219567,195041
OK,72,50,799,72,2014-10-02T06:25:00,4,28220014,195041
OK,79,46,799,79,2014-10-02T06:30:00,6,28220450,195041
OK,78,46,799,78,2014-10-02T06:40:00,2,28220897,195041
OK,78,46,799,78,2014-10-02T06:45:00,5,28221564,195041
OK,64,57,799,64,2014-10-02T07:00:00,4,28222158,195041
OK,68,53,799,68,2014-10-02T07:05:00,8,28222607,195041
OK,71,51,799,71,2014-10-02T07:10:00,5,28223040,195041
OK,73,50,799,73,2014-10-02T07:15:00,1,28223474,195041
OK,73,50,799,73,2014-10-02T07:20:00,0,28223921,195041
OK,63,58,799,63,2014-10-02T07:25:00,0,28224276,195041
OK,63,58,799,63,2014-10-02T07:30:00,0,28224725,195041
OK,75,48,799,75,2014-10-02T07:40:00,1,28225174,195041
OK,66,55,799,66,2014-10-02T07:50:00,4,28226388,195041
OK,67,54,799,67,2014-10-02T08:00:00,3,28226835,195041
OK,74,49,799,74,2014-10-02T08:05:00,1,28227699,195041
OK,74,49,799,74,2014-10-02T08:10:00,0,28228064,195041
OK,74,49,799,74,2014-10-02T08:20:00,0,28228507,195041
OK,69,52,799,69,2014-10-02T08:25:00,4,28229366,195041
OK,73,50,799,73,2014-10-02T08:30:00,2,28229724,195041
OK,65,56,799,65,2014-10-02T08:40:00,1,28230165,195041
OK,65,56,799,65,2014-10-02T08:45:00,0,28230980,195041
OK,69,52,799,69,2014-10-02T08:50:00,4,28231411,195041
OK,71,51,799,71,2014-10-02T08:55:00,1,28231852,195041
OK,71,51,799,71,2014-10-02T09:00:00,0,28232197,195041
OK,71,51,799,71,2014-10-02T09:10:00,0,28232643,195041
OK,69,52,799,69,2014-10-02T09:15:00,0,28233092,195041
OK,69,52,799,69,2014-10-02T09:20:00,0,28233524,195041
OK,73,50,799,73,2014-10-02T09:25:00,2,28233965,195041
OK,64,57,799,64,2014-10-02T09:30:00,1,28234300,195041
OK,66,55,799,66,2014-10-02T09:35:00,2,28234747,195041
OK,65,56,799,65,2014-10-02T09:40:00,0,28235174,195041
OK,81,45,799,81,2014-10-02T09:45:00,3,28235623,195041
OK,82,44,799,82,2014-10-02T09:50:00,0,28236067,195041
OK,76,48,799,76,2014-10-02T09:55:00,5,28236513,195041
OK,70,52,799,70,2014-10-02T10:00:00,1,28236918,195041
OK,70,52,799,70,2014-10-02T10:05:00,0,28237364,195041
OK,70,52,799,70,2014-10-02T10:10:00,0,28237812,195041
OK,71,51,799,71,2014-10-02T10:15:00,2,28238260,195041
OK,75,48,799,75,2014-10-02T10:20:00,1,28238701,195041
OK,80,45,799,80,2014-10-02T10:25:00,1,28239149,195041
OK,80,45,799,80,2014-10-02T10:30:00,0,28239580,195041
OK,67,54,799,67,2014-10-02T10:35:00,0,28240028,195041
OK,70,52,799,70,2014-10-02T10:40:00,2,28240473,195041
OK,76,48,799,76,2014-10-02T10:50:00,1,28240921,195041
OK,72,50,799,72,2014-10-02T10:55:00,6,28241801,195041
OK,73,50,799,73,2014-10-02T11:00:00,3,28242200,195041
OK,73,50,799,73,2014-10-02T11:05:00,0,28242646,195041
OK,62,58,799,62,2014-10-02T11:15:00,1,28243095,195041
OK,72,50,799,72,2014-10-02T11:20:00,5,28243859,195041
OK,67,54,799,67,2014-10-02T11:25:00,4,28244288,195041
OK,72,50,799,72,2014-10-02T11:30:00,0,28244736,195041
OK,75,48,799,75,2014-10-02T11:35:00,3,28245185,195041
OK,82,44,799,82,2014-10-02T11:40:00,0,28245595,195041
OK,82,44,799,82,2014-10-02T11:45:00,0,28246040,195041
OK,75,48,799,75,2014-10-02T11:50:00,7,28246477,195041
OK,75,48,799,75,2014-10-02T11:55:00,5,28246926,195041
OK,72,50,799,72,2014-10-02T12:00:00,3,28247372,195041
OK,85,42,799,85,2014-10-02T12:05:00,1,28247804,195041
OK,85,42,799,85,2014-10-02T12:10:00,0,28248251,195041
OK,76,48,799,76,2014-10-02T12:15:00,3,28248699,195041
OK,76,48,799,76,2014-10-02T12:20:00,0,28249127,195041
OK,72,50,799,72,2014-10-02T12:25:00,1,28249570,195041
OK,72,50,799,72,2014-10-02T12:30:00,0,28249989,195041
OK,70,52,799,70,2014-10-02T12:35:00,3,28250387,195041
OK,77,47,799,77,2014-10-02T12:45:00,1,28251167,195041
OK,78,46,799,78,2014-10-02T13:20:00,5,28251712,195041
OK,77,47,799,77,2014-10-02T13:30:00,5,28252296,195041
OK,72,50,799,72,2014-10-02T13:35:00,4,28252738,195041
OK,65,56,799,65,2014-10-02T13:40:00,0,28253155,195041
OK,74,49,799,74,2014-10-02T13:45:00,5,28253604,195041
OK,74,49,799,74,2014-10-02T13:50:00,3,28254010,195041
OK,68,53,799,68,2014-10-02T13:55:00,4,28254330,195041
OK,79,46,799,79,2014-10-02T14:10:00,6,28254907,195041
OK,69,52,799,69,2014-10-02T14:15:00,7,28255356,195041
OK,69,52,799,69,2014-10-02T14:20:00,7,28255784,195041
OK,68,53,799,68,2014-10-02T14:25:00,2,28256233,195041
OK,76,48,799,76,2014-10-02T14:30:00,6,28256661,195041
OK,75,48,799,75,2014-10-02T14:35:00,9,28257110,195041
OK,69,52,799,69,2014-10-02T14:40:00,4,28257551,195041
OK,69,52,799,69,2014-10-02T14:45:00,5,28257999,195041
OK,71,51,799,71,2014-10-02T14:50:00,7,28258432,195041
OK,76,48,799,76,2014-10-02T14:55:00,3,28258878,195041
OK,73,50,799,73,2014-10-02T15:00:00,6,28259327,195041
OK,67,54,799,67,2014-10-02T15:05:00,3,28259774,195041
OK,65,56,799,65,2014-10-02T15:10:00,2,28260207,195041
OK,80,45,799,80,2014-10-02T15:15:00,1,28260656,195041
OK,80,45,799,80,2014-10-02T15:20:00,1,28261096,195041
OK,371,9,799,371,2014-10-02T15:25:00,1,28261478,195041
OK,371,9,799,371,2014-10-02T15:30:00,0,28261908,195041
OK,77,47,799,77,2014-10-02T15:35:00,2,28262355,195041
OK,76,48,799,76,2014-10-02T15:40:00,1,28262801,195041
OK,65,56,799,65,2014-10-02T15:45:00,3,28263239,195041
OK,70,52,799,70,2014-10-02T15:50:00,1,28263680,195041
OK,70,52,799,70,2014-10-02T15:55:00,0,28264082,195041
OK,70,52,799,70,2014-10-02T16:00:00,0,28264531,195041
OK,70,52,799,70,2014-10-02T16:05:00,0,28264969,195041
OK,64,57,799,64,2014-10-02T16:10:00,1,28265409,195041
OK,64,57,799,64,2014-10-02T16:15:00,0,28265805,195041
OK,69,52,799,69,2014-10-02T16:20:00,5,28266254,195041
OK,70,52,799,70,2014-10-02T16:25:00,5,28266703,195041
OK,67,54,799,67,2014-10-02T16:30:00,3,28267026,195041
OK,68,53,799,68,2014-10-02T16:35:00,0,28267475,195041
OK,68,53,799,68,2014-10-02T16:40:00,0,28267924,195041
OK,97,37,799,97,2014-10-02T16:45:00,0,28268366,195041
OK,97,37,799,97,2014-10-02T16:50:00,0,28268815,195041
OK,97,37,799,97,2014-10-02T16:55:00,0,28269264,195041
OK,97,37,799,97,2014-10-02T17:00:00,0,28269699,195041
OK,97,37,799,97,2014-10-02T17:05:00,0,28270148,195041
OK,97,37,799,97,2014-10-02T17:10:00,0,28270582,195041
OK,97,37,799,97,2014-10-02T17:15:00,0,28271031,195041
OK,65,56,799,65,2014-10-02T17:20:00,1,28271461,195041
OK,66,55,799,66,2014-10-02T17:25:00,0,28271909,195041
OK,82,44,799,82,2014-10-02T17:30:00,1,28272345,195041
OK,82,44,799,82,2014-10-02T17:35:00,0,28272786,195041
OK,82,44,799,82,2014-10-02T17:40:00,0,28273234,195041
OK,66,55,799,66,2014-10-02T17:45:00,0,28273680,195041
OK,60,60,799,60,2014-10-02T17:55:00,1,28274129,195041
OK,56,65,799,56,2014-10-02T18:00:00,1,28274903,195041
OK,56,65,799,56,2014-10-02T18:05:00,0,28275342,195041
OK,56,65,799,56,2014-10-02T18:10:00,0,28275787,195041
OK,56,65,799,56,2014-10-02T18:15:00,0,28276233,195041
OK,56,65,799,56,2014-10-02T18:20:00,0,28276629,195041
OK,56,65,799,56,2014-10-02T18:30:00,0,28277078,195041
OK,62,58,799,62,2014-10-02T18:40:00,0,28277527,195041
OK,78,46,799,78,2014-10-02T18:45:00,0,28278324,195041
OK,78,46,799,78,2014-10-02T19:00:00,0,28278773,195041
OK,78,46,799,78,2014-10-02T19:05:00,0,28279222,195041
OK,78,46,799,78,2014-10-02T19:10:00,0,28279667,195041
OK,65,56,799,65,2014-10-02T19:15:00,0,28280108,195041
OK,65,56,799,65,2014-10-02T19:20:00,0,28280555,195041
OK,65,56,799,65,2014-10-02T19:25:00,0,28280959,195041
OK,65,56,799,65,2014-10-02T19:35:00,0,28281857,195041
OK,65,56,799,65,2014-10-02T19:40:00,0,28282288,195041
OK,65,56,799,65,2014-10-02T19:45:00,0,28282737,195041
OK,65,56,799,65,2014-10-02T19:50:00,0,28283184,195041
OK,65,56,799,65,2014-10-02T19:55:00,0,28283614,195041
OK,65,56,799,65,2014-10-02T20:00:00,0,28283984,195041